"Pseudo-MPEC" for ZTF02rx

Created 2019 Feb 19 10:18:13 UT using Find_Orb

Click here for an explanation of pseudo-MPECs

 
 Astrometry: 
     ZTF02rx  C2019 02 09.29484409 40 27.53 -02 29 48.5    ~29Lm 17.19RUNEOCPI41
     ZTF02rx  C2019 02 09.29519109 40 32.36 -02 30 51.5    ~29Lm 17.19RUNEOCPI41
     ZTF02rx  C2019 02 09.30067009 41 46.04 -02 47 20.1    ~29Lm 17.83RUNEOCPI41
     ZTF02rx  C2019 02 09.30101709 41 50.54 -02 48 19.7    ~29Lm 17.83RUNEOCPI41

Station data:
(I41) Palomar Mountain--ZTF  (N33.357340 W116.859780)  US/California. 1.2-m
   f/2.44 Oschin Schmidt + CCD.

Orbital elements:  ZTF02rx
   Perigee 2019 Feb 9.034694 +/- 37.9 TT =  0:49:57 (JD 2458523.534694)
Epoch 2019 Feb  9.0 TT = JDT 2458523.5                        AutoNEOCP
q 28789.6327 +/- 1.85e+7            (J2000 equator)
H   33.2  G 0.15                    Peri.   79.98061 +/- 59
                                    Node   323.85994 +/- 80
e   1.4153893 +/- 0.241             Incl.   35.67954 +/- 2.7
From 4 observations 2019 Feb. 9 (8.9 min); mean residual 0".61
Residuals in arcseconds: 
190209 I41  .52-  .31-    190209 I41  .55+  .93-    
190209 I41  .52+  .39+    190209 I41  .55-  .85+    

Ephemerides (geocentric):
Date (UTC) HH   RA              Dec         delta   r     elong  mag " sig PA
---- -- -- --  -------------   -----------  ------ ------ -----  --- ---- ---
2019 02 19 10  11 27 11.785   -18 18 05.27  .01584 1.0014 144.6 25.7  68d 179
2019 02 19 11  11 27 12.805   -18 18 07.60  .01590 1.0015 144.6 25.7  68d 179
2019 02 19 12  11 27 13.813   -18 18 09.80  .01596 1.0015 144.7 25.7  68d 179
2019 02 19 13  11 27 14.809   -18 18 11.89  .01602 1.0016 144.7 25.7  68d 179
2019 02 19 14  11 27 15.791   -18 18 13.85  .01608 1.0017 144.7 25.7  68d 179
2019 02 19 15  11 27 16.762   -18 18 15.70  .01614 1.0017 144.8 25.7  68d 179
2019 02 19 16  11 27 17.720   -18 18 17.43  .01620 1.0018 144.8 25.7  68d 179
2019 02 19 17  11 27 18.666   -18 18 19.05  .01626 1.0019 144.8 25.7  68d 179
2019 02 19 18  11 27 19.600   -18 18 20.55  .01632 1.0019 144.9 25.7  68d 179
2019 02 19 19  11 27 20.522   -18 18 21.93  .01638 1.0020 144.9 25.7  68d 179
2019 02 19 20  11 27 21.432   -18 18 23.20  .01644 1.0021 144.9 25.7  68d 179
2019 02 19 21  11 27 22.330   -18 18 24.36  .01651 1.0021 144.9 25.7  68d 179
2019 02 19 22  11 27 23.217   -18 18 25.41  .01657 1.0022 145.0 25.7  68d 179
2019 02 19 23  11 27 24.092   -18 18 26.34  .01663 1.0022 145.0 25.8  68d 179
2019 02 20 00  11 27 24.955   -18 18 27.17  .01669 1.0023 145.0 25.8  68d 179
2019 02 20 01  11 27 25.807   -18 18 27.88  .01675 1.0024 145.1 25.8  68d 179
2019 02 20 02  11 27 26.648   -18 18 28.48  .01681 1.0024 145.1 25.8  68d 179
2019 02 20 03  11 27 27.477   -18 18 28.98  .01687 1.0025 145.1 25.8  68d 179
2019 02 20 04  11 27 28.295   -18 18 29.36  .01693 1.0026 145.2 25.8  68d 179
2019 02 20 05  11 27 29.102   -18 18 29.64  .01699 1.0026 145.2 25.8  68d 179
2019 02 20 06  11 27 29.897   -18 18 29.81  .01705 1.0027 145.2 25.8  68d 179
2019 02 20 07  11 27 30.682   -18 18 29.87  .01711 1.0028 145.3 25.8  68d 179
2019 02 20 08  11 27 31.456   -18 18 29.83  .01717 1.0028 145.3 25.8  68d 179
2019 02 20 09  11 27 32.219   -18 18 29.68  .01723 1.0029 145.3 25.8  68d 179
2019 02 20 10  11 27 32.971   -18 18 29.43  .01729 1.0029 145.4 25.8  68d 179
2019 02 20 11  11 27 33.713   -18 18 29.08  .01735 1.0030 145.4 25.8  68d 179
2019 02 20 12  11 27 34.444   -18 18 28.62  .01741 1.0031 145.4 25.8  68d 179
2019 02 20 13  11 27 35.164   -18 18 28.05  .01747 1.0031 145.5 25.8  68d 179
2019 02 20 14  11 27 35.874   -18 18 27.39  .01753 1.0032 145.5 25.9  68d 179
2019 02 20 15  11 27 36.573   -18 18 26.62  .01759 1.0033 145.5 25.9  68d 179
2019 02 20 16  11 27 37.263   -18 18 25.75  .01765 1.0033 145.6 25.9  68d 179
2019 02 20 17  11 27 37.941   -18 18 24.78  .01771 1.0034 145.6 25.9  68d 179
2019 02 20 18  11 27 38.610   -18 18 23.70  .01777 1.0035 145.6 25.9  68d 179
2019 02 20 19  11 27 39.269   -18 18 22.53  .01783 1.0035 145.6 25.9  68d 179
2019 02 20 20  11 27 39.917   -18 18 21.26  .01789 1.0036 145.7 25.9  68d 179
2019 02 20 21  11 27 40.555   -18 18 19.89  .01795 1.0037 145.7 25.9  69d 179
2019 02 20 22  11 27 41.184   -18 18 18.42  .01801 1.0037 145.7 25.9  69d 179
2019 02 20 23  11 27 41.802   -18 18 16.85  .01807 1.0038 145.8 25.9  69d 179
2019 02 21 00  11 27 42.411   -18 18 15.19  .01813 1.0039 145.8 25.9  69d 179
2019 02 21 01  11 27 43.010   -18 18 13.43  .01820 1.0039 145.8 25.9  69d 179
2019 02 21 02  11 27 43.599   -18 18 11.57  .01826 1.0040 145.9 25.9  69d 179
2019 02 21 03  11 27 44.179   -18 18 09.61  .01832 1.0040 145.9 25.9  69d 179
2019 02 21 04  11 27 44.749   -18 18 07.56  .01838 1.0041 145.9 25.9  69d 179
2019 02 21 05  11 27 45.309   -18 18 05.41  .01844 1.0042 146.0 26.0  69d 179
2019 02 21 06  11 27 45.860   -18 18 03.17  .01850 1.0042 146.0 26.0  69d 179
2019 02 21 07  11 27 46.402   -18 18 00.83  .01856 1.0043 146.0 26.0  69d 179
2019 02 21 08  11 27 46.934   -18 17 58.39  .01862 1.0044 146.1 26.0  69d 179
2019 02 21 09  11 27 47.457   -18 17 55.87  .01868 1.0044 146.1 26.0  69d 179